Weather Roundup
Issued by NWS Corpus Christi, TX

Home | Current Version | Previous Version | Text Only | Print | Product List | Glossary On
Versions: 1 2 3 4 5 6 7 8 9 10 11 12 13 14 15 16 17 18 19 20 21 22 23 24 25 26 27 28 29 30 31 32 33 34 35 36 37 38 39 40 41 42 43 44 45 46 47 48 49 50
000
ASUS44 KCRP 180310
HRRCRP

SOUTH TEXAS REGIONAL WEATHER ROUNDUP
NATIONAL WEATHER SERVICE CORPUS CHRISTI TX
1000 PM CDT THU APR 17 2014


TXZ229>244-180400-
...CORPUS CHRISTI AREA OBSERVATIONS...

CITY           SKY/WX    TMP DP  RH WIND       PRES   REMARKS
CORPUS CHRISTI DRIZZLE   66  62  87 E13       30.09R
NAS CORPUS CHR CLOUDY    67  63  87 E20       30.08R
ROCKPORT       CLOUDY    66  63  90 E14       30.10R
KINGSVILLE NAS LGT RAIN  68  64  87 E16       30.08R
ALICE          LGT RAIN  65  64  97 E9        30.09R FOG
FALFURRIAS     CLOUDY    70  65  85 E13       30.07R
$$

...VICTORIA AREA OBSERVATIONS...

CITY           SKY/WX    TMP DP  RH WIND       PRES   REMARKS
VICTORIA       CLOUDY    64  59  83 E9        30.12S
BEEVILLE       CLOUDY    64  64 100 E8        30.11R
PLEASANTON     HVY RAIN  65  59  80 E8        30.13R
SAN ANTONIO    LGT RAIN  63  62  97 E7        30.14R FOG
$$

...LAREDO AREA OBSERVATIONS...

CITY           SKY/WX    TMP DP  RH WIND       PRES   REMARKS
LAREDO         CLOUDY    72  63  73 E14       30.08R
COTULLA        CLOUDY    69  61  75 E15G22    30.09R
DEL RIO        CLEAR     73  56  54 E15G23    30.06R
MCALLEN        LGT RAIN  69  67  93 E9        30.05R
HEBBRONVILLE   CLOUDY    68  62  80 E12       30.09R
$$

...OTHER TEXAS OBSERVATIONS...

CITY           SKY/WX    TMP DP  RH WIND       PRES   REMARKS
BROWNSVILLE    CLOUDY    70  67  90 E8        30.03R
HOUSTON        CLOUDY    64  56  75 E10       30.15R
COL. STATION   LGT RAIN  63  59  87 NE5       30.16R
AUSTIN         LGT RAIN  61  60  97 NE7       30.15R FOG
WACO           CLOUDY    61  59  93 CALM      30.17R FOG
FORT WORTH     CLOUDY    60  53  77 N7        30.19R
WICHITA FALLS  CLOUDY    55  53  93 E6        30.21R
LUBBOCK        PTCLDY    47  39  74 NE12      30.22R
EL PASO        PTCLDY    72  22  15 E14       30.05R
$$

...MARINE OBSERVATIONS...

STATION/POSITION TIME  SKY/WX   TEMP    WIND        PRES    VSBY  WAVE   SWELL
                                AIR SEA DIR/SP/G                  HT/PER HT/PER
                 (UTC)          (F)     (DEG/KT/KT) (MB)    (MI)  (FT/S) (FT/S)
PORT ARANSAS     0300            66 67   60/ 17/ 18 1018.9R
BUOY 90 E PORT A NOT AVBL
BUOY 45 SE BAFFI 0300            69 68   80/ 17/ 23 1017.1R         6/ 7
BUOY 200 E PT IS NOT AVBL
BUOY 15 E GALVES 0300            64 66   70/ 12/ 14 1020.0R         4/ 6   2/ 7
$$


USA.gov is the U.S. government's official web portal to all federal, state and local government web resources and services.